Location: Arrodets-la-Barthe
(43.0306°N, 0.2829°E)
Time: 12:38:07
(UTC+00:00)

NOSS 3-1 (A) - Pass Details

Date: 24 October 2021
Orbit: 721 x 1491 km, 63.4° (Epoch: 22 November)

Event Time Altitude Azimuth Distance (km) Brightness Sun altitude
Rises 17:46:22 0° 191° (S) 3,149 6.5 -8.8°
Reaches altitude 10° 17:48:44 10° 184° (S) 2,271 5.6 -9.2°
Maximum altitude 17:53:30 40° 115° (ESE) 1,191 3.6 -10.1°
Drops below altitude 10° 17:58:58 10° 48° (NE) 2,607 5.3 -11.1°
Enters shadow 17:59:58 - 45° (NE) 2,973 5.6 -11.2°
